Weather in Minyar

Russia / Chelyabinsk Oblast     55°04′15″N   57°32′54″E
temp.,
°C
wind,
m/s
gust,
m/s
humid.,
%
clouds,
%
prec.,
mm/h
press.,
hPa
HPBL,
m
15 may, sat
sat1523:00+16s22605 0.0 102413
02:00+15s1160100 0.0 102414
05:00+15s226078 0.0 102416
08:00+19sw24505 0.0 1024191
11:00+25wsw47345 0.0 1023835
14:00+28wsw5726100 0.0 10231559
17:00+28wsw47285 0.0 10221552
20:00+22ssw24515 0.0 102166
16 may, sun
sun1623:00+18ssw226440 0.0 102216
02:00+16ssw2268100 0.0 102215
05:00+15ssw226597 0.0 102313
08:00+20sw135334 0.0 1023159
11:00+26wsw353410 0.0 1022834
14:00+29wsw46245 0.0 10212629
17:00+28wsw56250 0.0 10212584
20:00+22ssw22500 0.0 102020
17 may, mon
mon1723:00+18s22552 0.0 102016
02:00+17sse215498 0.0 102017
05:00+18ssw224812 0.0 102124
08:00+21ssw235062 0.0 1021157
11:00+26wsw463737 0.0 1021972
14:00+28wsw473012 0.0 10202764
17:00+27wsw45335 0.0 10192403
20:00+23sw24555 0.0 101981
18 may, tue
tue1823:00+18ssw226711 0.0 101918
02:00+17sw2269100 0.0 101923
05:00+14ssw22815 0.6 101913
08:00+19wsw12675 0.3 1019186
11:00+24w245032 0.4 1019907
14:00+27wnw473660 0.0 10182459
17:00+26nnw4635100 0.0 10181950
20:00+21nnw255517 0.0 1019106
19 may, wed
wed1923:00+15ne22675 0.0 102032
02:00+13ne22755 0.0 102126
05:00+11ene23855 0.0 102157
08:00+15ene35700 0.0 1022431
11:00+21ene35465 0.0 10221232
14:00+24ne44335 0.0 10211793
17:00+23ne4434100 0.0 1021908
20:00+19ene3750100 0.0 1021196